{"data":{"norad_id":68616,"intl_designator":"2026-073Q","name":"STARLINK-37152","alt_names":[],"object_type":"PAYLOAD","status":"ACTIVE","operator":null,"country":"US","launch_date":"2026-04-07","launch_site_code":"AFWTR","launch_vehicle":null,"mission":null,"orbit_class":"UNKNOWN","rcs_meters":null,"size_class":null,"mass_kg":null,"dimensions":null,"purposes":["comms"],"wikipedia_slug":null,"has_3d_model":false,"image_url":null,"decayed_at":null,"tle_current":{"epoch":"2026-05-25T04:00:03.998880Z","epoch_age_seconds":54480,"freshness":"FRESH","line1":"1 68616U 26073Q   26145.16671295 -.00016605  00000+0 -30426-3 0  9997","line2":"2 68616  97.2855 344.5781 0001878  94.0688  29.8744 15.49191064  5993","mean_motion":15.49191064,"eccentricity":0.0001878,"inclination_deg":97.2855,"raan_deg":344.5781,"arg_perigee_deg":94.0688,"mean_anomaly_deg":29.8744,"bstar":-0.00030426,"rev_number":599,"period_min":92.951736778156,"perigee_km":417.81471147637,"apogee_km":420.3677503999,"semimajor_km":6797.2282309381,"source":"CELESTRAK","updated_at":"2026-05-25T13:38:21.969449Z"}}}